Pittsburg, KS

8:26 AM CDT on August 22, 2017 (GMT -0500)
Atkinson Municipal

Weather History for KPTS - November, 2012

Change the Weather History Date:

Friday, November 2, 2012

  Actual Average (KJLN) Record (KJLN)
Temperature  
Mean Temperature 59 °F -  
Max Temperature 78 °F 59 °F 82 °F (2016)
Min Temperature 40 °F 42 °F 16 °F (1991)
Degree Days  
Heating Degree Days 6    
Growing Degree Days 9 (Base 50)    
Moisture  
Dew Point 48 °F    
Average Humidity 70    
Maximum Humidity 100    
Minimum Humidity 40    
Precipitation  
Precipitation 0.03 in - - ()
Sea Level Pressure  
Sea Level Pressure 29.89 in    
Wind  
Wind Speed 4 mph (SSE)    
Max Wind Speed 12 mph    
Max Gust Speed -    
Visibility 10 miles    
Events      
Averages and records for this station are not official NWS values.
T = Trace of Precipitation, MM = Missing Value Source: NWS Daily Summary

Daily Weather History Graph

Daily Weather History Graph

Search for Another Location

Airport or City:

Trip Planner

Search our weather history database for the weather conditions in past years. The results will help you decide how hot, cold, wet, or windy it might be!

Date:

Astronomy

Nov. 02, 2012 Rise Set
Actual Time 7:45 AM CDT 6:19 PM CDT
Civil Twilight 7:18 AM CDT 6:46 PM CDT
Nautical Twilight 6:47 AM CDT 7:17 PM CDT
Astronomical Twilight 6:16 AM CDT 7:47 PM CDT
Moon 9:09 PM CDT (11/2) 11:03 AM CDT (11/2)
Length of Visible Light 11h 28m
Length of Day
10h 33m
Waning Gibbous, 87% of the Moon is Illuminated
Nov 2
Waning Gibbous
Nov 6
Last Quarter
Nov 13
New
Nov 20
First Quarter
Nov 28
Full

Hourly Weather History & Observations

Time (CDT) Temp. Windchill Dew Point Humidity Pressure Visibility Wind Dir Wind Speed Gust Speed Precip Events Conditions
12:15 AM 47.8 °F - 43.2 °F 84% 29.94 in 10.0 mi Calm Calm - N/A   Clear
12:35 AM 47.8 °F - 43.9 °F 86% 29.94 in 10.0 mi Calm Calm - N/A   Clear
12:55 AM 45.9 °F - 43.0 °F 90% 29.94 in 10.0 mi Calm Calm - N/A   Clear
1:15 AM 45.5 °F - 44.1 °F 95% 29.94 in 10.0 mi Calm Calm - N/A   Clear
1:35 AM 43.5 °F - 42.6 °F 97% 29.94 in 10.0 mi Calm Calm - N/A   Clear
1:55 AM 44.6 °F - 42.8 °F 93% 29.94 in 10.0 mi Calm Calm - N/A   Clear
2:15 AM 42.4 °F - 42.4 °F 100% 29.93 in 10.0 mi Calm Calm - N/A   Clear
2:35 AM 42.3 °F - 42.3 °F 100% 29.94 in 10.0 mi Calm Calm - N/A   Clear
2:55 AM 43.2 °F - 43.2 °F 100% 29.94 in 10.0 mi Calm Calm - N/A   Clear
3:15 AM 43.3 °F - 43.0 °F 99% 29.94 in 10.0 mi Calm Calm - N/A   Clear
3:35 AM 42.1 °F - 42.3 °F 100% 29.94 in 10.0 mi Calm Calm - N/A   Clear
3:55 AM 41.0 °F 39.0 °F 41.2 °F 100% 29.94 in 10.0 mi ENE 3.5 mph - N/A   Clear
4:15 AM 41.4 °F - 41.4 °F 100% 29.93 in 10.0 mi Calm Calm - N/A   Clear
4:35 AM 42.1 °F - 42.1 °F 100% 29.93 in 10.0 mi Calm Calm - N/A   Clear
4:55 AM 41.5 °F - 41.7 °F 100% 29.93 in 10.0 mi Calm Calm - N/A   Clear
5:15 AM 41.0 °F - 41.2 °F 100% 29.93 in 10.0 mi Calm Calm - N/A   Clear
5:35 AM 40.1 °F - 40.3 °F 100% 29.92 in 10.0 mi Calm Calm - N/A   Clear
5:55 AM 40.1 °F 38.0 °F 40.3 °F 100% 29.92 in 10.0 mi ENE 3.5 mph - N/A   Clear
6:15 AM 41.0 °F 38.0 °F 41.2 °F 100% 29.92 in 10.0 mi ENE 4.6 mph - N/A   Clear
6:35 AM 47.5 °F - 45.5 °F 93% 29.92 in 10.0 mi ENE 4.6 mph - N/A   Clear
6:55 AM 49.1 °F - 43.9 °F 82% 29.93 in 10.0 mi ENE 4.6 mph - N/A   Clear
7:15 AM 49.1 °F - 44.2 °F 83% 29.93 in 10.0 mi East 4.6 mph - N/A   Clear
7:35 AM 47.5 °F - 43.7 °F 87% 29.94 in 10.0 mi East 3.5 mph - N/A   Clear
7:55 AM 46.4 °F - 43.2 °F 88% 29.95 in 10.0 mi Calm Calm - N/A   Clear
8:15 AM 46.4 °F 44.3 °F 43.7 °F 90% 29.95 in 10.0 mi East 4.6 mph - N/A   Clear
8:35 AM 47.5 °F - 45.0 °F 91% 29.95 in 10.0 mi East 5.8 mph - N/A   Clear
8:55 AM 49.1 °F - 45.1 °F 86% 29.95 in 10.0 mi East 6.9 mph - N/A   Clear
9:15 AM 49.5 °F - 43.7 °F 81% 29.95 in 10.0 mi ESE 5.8 mph - N/A   Clear
9:35 AM 52.5 °F - 45.0 °F 75% 29.95 in 10.0 mi ESE 9.2 mph - N/A   Clear
9:55 AM 54.0 °F - 45.1 °F 72% 29.95 in 10.0 mi ESE 8.1 mph - N/A   Clear
10:15 AM 55.0 °F - 44.4 °F 67% 29.94 in 10.0 mi SE 9.2 mph - N/A   Clear
10:35 AM 57.0 °F - 45.1 °F 64% 29.93 in 10.0 mi SE 9.2 mph - N/A   Clear
10:55 AM 58.8 °F - 45.7 °F 62% 29.93 in 10.0 mi ESE 8.1 mph - N/A   Clear
11:15 AM 59.9 °F - 45.5 °F 59% 29.92 in 10.0 mi ESE 6.9 mph - N/A   Clear
11:35 AM 61.9 °F - 46.6 °F 57% 29.92 in 10.0 mi SE 9.2 mph - N/A   Clear
11:55 AM 64.8 °F - 47.8 °F 54% 29.92 in 10.0 mi SSE 6.9 mph - N/A   Clear
12:15 PM 66.6 °F - 48.9 °F 53% 29.90 in 10.0 mi SE 9.2 mph - N/A   Clear
12:35 PM 68.5 °F - 49.8 °F 51% 29.89 in 10.0 mi SSE 11.5 mph - N/A   Clear
12:55 PM 69.1 °F - 49.3 °F 49% 29.89 in 10.0 mi South 8.1 mph - N/A   Clear
1:15 PM 70.5 °F - 49.6 °F 47% 29.88 in 10.0 mi SSE 10.4 mph - N/A   Clear
1:35 PM 73.8 °F - 51.4 °F 45% 29.87 in 10.0 mi SSW 6.9 mph - N/A   Clear
1:55 PM 74.3 °F - 51.4 °F 45% 29.86 in 10.0 mi South 10.4 mph - N/A   Clear
2:35 PM 78.1 °F - 51.6 °F 40% 29.85 in 10.0 mi South 10.4 mph - N/A   Clear
2:55 PM 77.9 °F - 52.0 °F 40% 29.84 in 10.0 mi SSW 9.2 mph - 0.03 in   Clear
3:15 PM 78.4 °F - 52.0 °F 40% 29.83 in - South 11.5 mph - N/A   Unknown
3:35 PM 77.9 °F - 52.0 °F 40% - 10.0 mi South 11.5 mph - N/A   Clear
3:55 PM - - - N/A% 29.82 in 10.0 mi South 10.4 mph - N/A   Clear
4:15 PM 78.3 °F - 53.8 °F 43% 29.81 in 10.0 mi South 10.4 mph - N/A   Clear
4:35 PM 78.4 °F - 54.0 °F 43% 29.81 in 10.0 mi SSW 11.5 mph - N/A   Clear
4:55 PM 77.9 °F - 54.1 °F 44% 29.81 in 10.0 mi South 9.2 mph - N/A   Clear
5:15 PM 76.8 °F - 52.9 °F 43% 29.80 in 10.0 mi South 9.2 mph - N/A   Clear
5:35 PM 76.1 °F - 53.1 °F 45% 29.80 in 10.0 mi South 8.1 mph - N/A   Clear
5:55 PM 76.1 °F - 54.5 °F 47% - 10.0 mi South 5.8 mph - N/A   Clear
6:15 PM 73.8 °F - 54.1 °F 50% 29.81 in 10.0 mi Calm Calm - N/A   Clear
6:35 PM 71.1 °F - 53.6 °F 54% 29.81 in 10.0 mi SE 3.5 mph - N/A   Clear
6:55 PM 70.9 °F - 54.5 °F 56% 29.82 in 10.0 mi SE 3.5 mph - N/A   Clear
7:15 PM 69.8 °F - 54.3 °F 58% 29.82 in 10.0 mi SSE 3.5 mph - N/A   Clear
7:35 PM 66.7 °F - 53.4 °F 62% 29.83 in 10.0 mi SSE 3.5 mph - N/A   Clear
7:55 PM 67.6 °F - 53.6 °F 61% 29.83 in 10.0 mi SSE 4.6 mph - N/A   Clear
8:15 PM 66.4 °F - 52.7 °F 61% 29.83 in 10.0 mi South 4.6 mph - N/A   Clear
8:35 PM 65.7 °F - 52.2 °F 62% 29.82 in 10.0 mi South 4.6 mph - N/A   Clear
8:55 PM 64.0 °F - 51.3 °F 63% 29.82 in 10.0 mi South 8.1 mph - N/A   Clear
9:15 PM 63.0 °F - 51.4 °F 66% 29.82 in 10.0 mi South 8.1 mph - N/A   Clear
9:35 PM 64.8 °F - 51.6 °F 62% 29.82 in 10.0 mi South 9.2 mph - N/A   Clear
9:55 PM 67.8 °F - 52.7 °F 58% 29.83 in - SSW 10.4 mph - N/A   Clear
10:15 PM 68.4 °F - 52.7 °F 57% 29.84 in 10.0 mi South 9.2 mph - N/A   Clear
10:35 PM 68.4 °F - 52.9 °F 58% 29.84 in 10.0 mi South 8.1 mph - N/A   Clear
10:55 PM 68.2 °F - 52.9 °F 58% 29.84 in 10.0 mi SSW 9.2 mph - N/A   Clear
11:15 PM 68.4 °F - 52.7 °F 57% 29.84 in 10.0 mi SSW 9.2 mph - N/A   Clear
11:35 PM 67.5 °F - 51.8 °F 57% 29.84 in 10.0 mi SSW 8.1 mph - N/A   Clear
11:55 PM 67.8 °F - 51.4 °F 56% 29.84 in 10.0 mi SSW 11.5 mph - N/A   Clear